JQ1YUX-13 Tokyo Ota-ku JP current weather conditions

sailwx.info

Wind from 233

Air temperature 28.3° C
Dewpoint 25.9° C

Last reported at 2016-Aug-25 10:31 UTC.
Time now 2016-Aug-25 11:30 UTC

Location: N 35°35' E 139°40'.
View on Google Maps.

See reports from other nearby stations

  
Tides and Currents Weather Stations Pressure Air Temp Water Temp Dewpoint Dewpoint Depression Visibility Wind Speed Wind Dir Waves Ship Positions
date/time (UTC)wind fromknots sea level pressurealtimeterstation pressurevisibilityair tempwater tempwave heightnotes
2016-Aug-25 10:31 233 28.3
2016-Aug-25 10:28 234 28.3
2016-Aug-25 10:01 199 28.3
2016-Aug-25 09:58 198 28.3
2016-Aug-25 09:31 225 28.9
2016-Aug-25 09:28 203 28.9
2016-Aug-25 09:01 197 29.4
2016-Aug-25 08:58 161 29.4
2016-Aug-25 08:31 195 30.0
2016-Aug-25 08:28 206 30.0
2016-Aug-25 08:01 209 30.6
2016-Aug-25 07:58 169 30.6
2016-Aug-25 07:31 206 31.1
2016-Aug-25 07:28 192 31.1
2016-Aug-25 07:01 200 31.7
2016-Aug-25 06:58 180 31.7
2016-Aug-25 06:31 213 31.7
2016-Aug-25 06:28 174 31.7
2016-Aug-25 06:01 215 1 gusting 6 32.8
2016-Aug-25 05:58 161 0 gusting 3 32.8
2016-Aug-25 05:31 163 32.2
2016-Aug-25 05:28 185 0 gusting 4 32.2
2016-Aug-25 05:01 183 32.8
2016-Aug-25 04:58 191 32.2
2016-Aug-25 04:31 180 1 gusting 5 32.8
2016-Aug-25 04:28 200 32.8
2016-Aug-25 04:01 182 33.3
2016-Aug-25 03:58 176 0 gusting 4 33.3
2016-Aug-25 03:31 206 32.2
2016-Aug-25 03:28 204 32.2
2016-Aug-25 03:01 216 32.8
2016-Aug-25 02:58 203 32.2
2016-Aug-25 02:31 201 31.7
2016-Aug-25 02:28 195 31.7
2016-Aug-25 02:01 218 1 gusting 4 31.1
2016-Aug-25 01:58 166 0 gusting 8 31.1
2016-Aug-25 01:31 190 0 gusting 5 30.6
2016-Aug-25 01:28 198 30.6
2016-Aug-25 01:01 194 1 gusting 2 29.4
2016-Aug-25 00:58 196 29.4
2016-Aug-25 00:31 190 28.9
2016-Aug-25 00:28 190 1 gusting 4 28.9
2016-Aug-25 00:01 155 28.3
2016-Aug-24 23:58 155 28.3
2016-Aug-24 23:31 155 27.8
2016-Aug-24 23:28 155 27.8
2016-Aug-24 23:01 155 27.8
2016-Aug-24 22:58 155 27.2
2016-Aug-24 22:31 155 26.7
2016-Aug-24 22:28 155 26.7
2016-Aug-24 22:01 155 26.1
2016-Aug-24 21:58 156 26.1
2016-Aug-24 21:31 155 25.6
2016-Aug-24 21:28 155 25.6
2016-Aug-24 21:01 155 25.0
2016-Aug-24 20:58 155 25.0
2016-Aug-24 20:31 155 25.0
2016-Aug-24 20:28 155 25.0
2016-Aug-24 20:01 155 25.0
2016-Aug-24 19:58 155 25.0
2016-Aug-24 19:31 155 25.0
2016-Aug-24 19:28 155 25.0
2016-Aug-24 19:01 155 25.6
2016-Aug-24 18:58 156 25.6
2016-Aug-24 18:31 155 25.6
2016-Aug-24 18:28 155 25.6
2016-Aug-24 18:01 155 25.6
2016-Aug-24 17:58 155 25.6
2016-Aug-24 17:31 155 25.6
2016-Aug-24 17:28 155 25.6
2016-Aug-24 17:01 155 25.6
2016-Aug-24 16:58 156 25.6
2016-Aug-24 16:31 155 25.6
2016-Aug-24 16:28 155 26.1
2016-Aug-24 16:01 156 26.1
2016-Aug-24 15:58 156 26.1
2016-Aug-24 15:31 155 26.1
2016-Aug-24 15:28 155 26.1
2016-Aug-24 15:01 155 26.1
2016-Aug-24 14:58 155 26.7
2016-Aug-24 14:31 155 26.7
2016-Aug-24 14:28 155 26.7
2016-Aug-24 14:01 153 26.7
2016-Aug-24 13:58 153 26.7
2016-Aug-24 13:31 149 26.7
2016-Aug-24 13:28 148 26.7
2016-Aug-24 13:01 209 26.7
2016-Aug-24 12:58 180 26.7
2016-Aug-24 12:31 176 26.7
2016-Aug-24 12:28 176 27.2
2016-Aug-24 12:01 172 27.2
2016-Aug-24 11:58 171 26.7
2016-Aug-24 11:31 171 27.2
2016-Aug-24 11:28 171 27.2
2016-Aug-24 11:01 172 27.2
2016-Aug-24 10:58 171 27.2
2016-Aug-24 10:31 232 27.2
2016-Aug-24 10:28 232 27.2
2016-Aug-24 10:01 247 27.8
2016-Aug-24 09:58 229 27.8
2016-Aug-24 09:31 221 27.8
2016-Aug-24 09:28 208 27.8
2016-Aug-24 09:01 232 28.3
2016-Aug-24 08:58 225 28.3
2016-Aug-24 08:31 196 28.9
2016-Aug-24 08:28 179 28.9
2016-Aug-24 08:01 172 28.9
2016-Aug-24 07:58 169 28.9
2016-Aug-24 07:31 180 29.4
2016-Aug-24 07:28 178 29.4
2016-Aug-24 07:01 200 29.4
2016-Aug-24 06:58 202 29.4
2016-Aug-24 06:31 182 29.4
2016-Aug-24 06:28 176 29.4
2016-Aug-24 06:01 134 30.0
2016-Aug-24 05:58 176 30.6
2016-Aug-24 05:31 173 30.0
2016-Aug-24 05:28 175 30.0
2016-Aug-24 05:01 207 29.4
2016-Aug-24 04:58 220 29.4
2016-Aug-24 04:31 171 30.0
2016-Aug-24 04:28 182 30.6
2016-Aug-24 04:01 198 0 gusting 0 31.7
2016-Aug-24 03:58 198 0 gusting 0 31.7
2016-Aug-24 03:31 284 31.7
2016-Aug-24 03:28 284 31.7
2016-Aug-24 03:01 299 31.7
2016-Aug-24 02:58 300 0 gusting 4 31.7
2016-Aug-24 02:31 346 30.6
2016-Aug-24 02:28 347 30.6
2016-Aug-24 02:01 346 28.9
2016-Aug-24 01:58 346 28.9
2016-Aug-24 01:31 346 29.4
2016-Aug-24 01:28 346 29.4
2016-Aug-24 01:01 346 29.4
2016-Aug-24 00:58 346 29.4
2016-Aug-24 00:31 347 30.0
2016-Aug-24 00:28 346 30.0
2016-Aug-24 00:01 347 28.3
2016-Aug-23 23:58 347 0 gusting 4 28.3
2016-Aug-23 23:31 347 27.2
2016-Aug-23 23:28 346 2 gusting 5 27.2
2016-Aug-23 23:01 346 26.7
2016-Aug-23 22:58 347 26.7
2016-Aug-23 22:31 347 26.1
2016-Aug-23 22:28 346 26.1
2016-Aug-23 22:01 348 25.0
2016-Aug-23 21:58 347 25.0
2016-Aug-23 21:31 346 25.0
2016-Aug-23 21:28 347 25.0
2016-Aug-23 21:01 345 24.4
2016-Aug-23 20:58 346 24.4
2016-Aug-23 20:31 347 24.4
2016-Aug-23 20:28 346 24.4
2016-Aug-23 20:01 346 23.9
2016-Aug-23 19:58 346 23.9
2016-Aug-23 19:31 346 23.9
2016-Aug-23 19:28 348 23.9
2016-Aug-23 19:01 346 23.9
2016-Aug-23 18:58 346 23.9
2016-Aug-23 18:31 348 23.9
2016-Aug-23 18:28 346 23.9
2016-Aug-23 18:01 346 23.9
2016-Aug-23 17:58 346 23.9
2016-Aug-23 17:31 348 23.9
2016-Aug-23 17:28 347 23.9
2016-Aug-23 17:01 346 23.9
2016-Aug-23 16:58 346 23.9
2016-Aug-23 16:31 347 23.9
2016-Aug-23 16:28 347 23.9
2016-Aug-23 16:01 346 24.4
2016-Aug-23 15:58 346 24.4
2016-Aug-23 15:31 347 24.4
2016-Aug-23 15:28 347 24.4
2016-Aug-23 15:01 346 24.4
2016-Aug-23 14:58 346 24.4
2016-Aug-23 14:31 346 25.0
2016-Aug-23 14:28 347 25.0
2016-Aug-23 14:01 346 25.0
2016-Aug-23 13:58 348 25.0
2016-Aug-23 13:31 355 25.0
2016-Aug-23 13:28 355 25.0
2016-Aug-23 13:01 355 25.6
2016-Aug-23 12:58 355 26.1
2016-Aug-23 12:31 349 26.7
2016-Aug-23 12:28 336 26.7
2016-Aug-23 12:01 168 27.2
2016-Aug-23 11:58 168 27.2
2016-Aug-23 11:31 168 27.2
2016-Aug-23 11:28 168 27.2
2016-Aug-23 11:01 175 27.2